Location: Gisborne
(38.6530°S, 178.0040°E)
Time: 19:48:28
(UTC+13:00)

ISS - Pass Details

Date: 31 January 2019
Orbit: 403 x 411 km, 51.6° (Epoch: 18 February)

Event Time Altitude Azimuth Distance (km) Brightness Sun altitude
Exits shadow 04:37:01 52° 335° (NNW) 525 -3.7 -17.5°
Maximum altitude 04:37:41 73° 40° (NE) 439 -3.8 -17.4°
Drops below altitude 10° 04:41:02 10° 125° (SE) 1,496 0.4 -16.9°
Sets 04:43:08 0° 127° (SE) 2,362 1.9 -16.5°
